7M1JBF-13 Weather Reports


time (UTC)temp
C
wind
direction
speed
KPH
gust
KPH
rain 1hr
cm
rain 24hr
cm
rain mn
cm
humidity
%
barometer
mb
20260508220353 10 262 0.0 1.6 0.00 5.51 0.00 99 1008.1
20260508215331 10 262 0.0 1.6 0.00 5.51 0.00 99 1008.2
20260508214358 10 262 0.0 1.6 0.00 5.51 0.00 99 1008.1
20260508213342 10 262 0.0 1.6 0.00 5.51 0.00 99 1007.9
20260508212328 10 262 0.0 1.6 0.00 5.51 0.00 100 1007.8
20260508211332 10 262 0.0 0.0 0.00 5.51 0.00 99 1007.8
20260508210335 10 262 0.0 0.0 0.00 5.51 0.00 100 1007.4
20260508205341 10 262 0.0 0.0 0.00 5.51 0.00 99 1007.4
20260508204348 10 262 0.0 0.0 0.00 5.51 0.00 99 1007.2
20260508203331 10 262 0.0 1.6 0.00 5.51 0.00 99 1007.0
20260508202335 10 262 0.0 0.0 0.00 5.51 0.00 99 1006.8
20260508201339 10 262 0.0 1.6 0.00 5.51 0.00 99 1006.6
20260508200343 10 262 0.0 0.0 0.00 5.51 0.00 99 1006.3
20260508195347 10 262 0.0 0.0 0.00 5.51 0.00 99 1006.1
20260508194329 10 262 0.0 0.0 0.00 5.51 0.00 99 1006.0
20260508193334 11 262 0.0 0.0 0.00 5.51 0.00 99 1005.8
20260508192335 11 262 0.0 0.0 0.00 5.51 0.00 99 1005.8
20260508191338 11 262 0.0 0.0 0.00 5.51 0.00 99 1005.6
20260508190342 11 262 0.0 0.0 0.00 5.51 0.00 99 1005.4
20260508185344 11 262 0.0 0.0 0.00 5.51 0.00 99 1005.3
20260508184328 11 262 0.0 0.0 0.00 5.51 0.00 99 1005.2
20260508183332 12 262 0.0 1.6 0.00 5.51 0.00 99 1005.4
20260508182336 12 262 0.0 1.6 0.00 5.51 0.00 99 1005.3
20260508181338 12 262 0.0 1.6 0.00 5.51 0.00 99 1005.2
20260508180336 12 297 0.0 1.6 0.00 5.51 0.00 99 1005.3
20260508175338 12 297 0.0 0.0 0.00 5.51 0.00 99 1005.0
20260508174341 12 297 0.0 0.0 0.00 5.51 0.00 99 1005.0
20260508173327 12 297 0.0 0.0 0.00 5.51 0.00 99 1004.8
20260508172353 12 297 0.0 0.0 0.00 5.51 0.00 99 1004.7
20260508171335 12 297 0.0 0.0 0.00 5.51 0.00 99 1004.8
20260508170343 12 297 0.0 0.0 0.00 5.51 0.00 99 1004.7
20260508165325 12 297 0.0 0.0 0.00 5.51 0.00 99 1004.5
20260508164326 13 297 0.0 0.0 0.00 5.51 0.00 99 1004.5
20260508163332 13 297 0.0 1.6 0.00 5.51 0.00 99 1004.4
20260508162358 13 297 0.0 0.0 0.00 5.51 0.00 99 1004.4
20260508161340 13 297 0.0 0.0 0.00 5.51 0.00 99 1004.5
20260508160344 13 297 0.0 0.0 0.00 5.51 0.00 98 1004.2
20260508155330 13 297 0.0 0.0 0.10 5.51 0.00 98 1004.4
20260508154338 13 297 0.0 0.0 0.10 5.51 0.00 98 1004.4
20260508153340 13 297 0.0 0.0 0.20 5.51 0.00 98 1004.3
20260508152342 13 297 0.0 0.0 0.30 5.51 0.00 98 1004.3
20260508151354 13 297 0.0 0.0 0.71 5.51 0.00 98 1004.3
20260508150328 13 297 0.0 0.0 0.79 5.51 1.09 98 1004.3
20260508145329 13 297 0.0 1.6 1.09 5.41 1.09 98 1004.2
20260508144332 13 297 0.0 0.0 2.21 5.41 1.09 97 1004.1
20260508143355 13 297 0.0 0.0 2.69 5.31 1.07 97 1003.8
20260508142336 13 297 0.0 0.0 3.20 5.21 1.04 97 1003.6
20260508141337 14 297 0.0 1.6 3.10 4.80 0.97 97 1003.8
20260508140341 15 297 0.0 1.6 3.71 4.70 0.94 97 1003.7
20260508135342 15 297 0.0 0.0 3.51 4.19 0.84 97 1003.9
20260508134340 15 297 0.0 0.0 2.69 3.20 0.64 97 1003.6
20260508133338 15 298 0.0 1.6 2.01 2.49 0.51 97 1003.6
20260508132343 15 298 0.0 0.0 1.91 2.01 0.41 96 1003.4
20260508131346 16 298 0.0 1.6 1.70 1.70 0.33 96 1003.1
20260508130327 16 267 0.0 0.0 0.99 0.99 0.20 95 1003.2
20260508125329 16 267 0.0 0.0 0.71 0.71 0.15 95 1003.1
20260508124334 16 267 0.0 0.0 0.51 0.51 0.10 93 1002.8
20260508123359 17 267 0.0 1.6 0.51 0.51 0.10 91 1002.7
20260508122358 17 197 0.0 3.2 0.10 0.10 0.03 89 1002.6
20260508121341 17 273 0.0 3.2 0.00 0.00 0.00 88 1002.6
20260508120402 18 273 0.0 0.0 0.00 0.00 0.00 88 1002.5
20260508115341 18 273 0.0 9.7 0.00 0.00 0.00 89 1002.8
20260508114346 18 268 0.0 4.8 0.00 0.00 0.00 95 1002.6
20260508113328 18 282 0.0 1.6 0.00 0.00 0.00 96 1002.4
20260508112331 18 282 0.0 3.2 0.00 0.00 0.00 96 1002.5
20260508111356 18 303 0.0 0.0 0.00 0.00 0.00 96 1002.3
20260508110341 18 303 0.0 1.6 0.00 0.00 0.00 96 1002.2
20260508105346 18 303 0.0 0.0 0.00 0.00 0.00 96 1002.1
20260508104355 18 303 0.0 0.0 0.00 0.00 0.00 96 1002.0
20260508103356 18 303 0.0 0.0 0.00 0.00 0.00 96 1002.2
20260508102342 18 303 0.0 0.0 0.00 0.00 0.00 95 1002.0
20260508101331 18 303 0.0 0.0 0.00 0.00 0.00 95 1001.6
20260508100337 18 303 0.0 1.6 0.00 0.00 0.00 95 1001.4
20260508095342 18 303 0.0 1.6 0.00 0.00 0.00 94 1001.4
20260508094328 18 303 0.0 0.0 0.00 0.00 0.00 94 1001.3
20260508093332 19 303 0.0 0.0 0.00 0.00 0.00 93 1001.3
20260508092339 19 303 0.0 1.6 0.00 0.00 0.00 93 1001.2
20260508091405 19 303 0.0 0.0 0.00 0.00 0.00 92 1001.3
20260508090344 20 303 0.0 0.0 0.00 0.00 0.00 92 1001.5
20260508085328 20 303 0.0 1.6 0.00 0.00 0.00 92 1001.7
20260508084331 20 270 0.0 0.0 0.00 0.00 0.00 91 1001.6
20260508083333 20 270 0.0 3.2 0.00 0.00 0.00 90 1001.8
20260508082336 20 270 0.0 1.6 0.00 0.00 0.00 90 1001.8
20260508081339 20 261 0.0 1.6 0.00 0.00 0.00 89 1002.0
20260508080341 20 261 0.0 1.6 0.00 0.00 0.00 88 1002.0
20260508075357 21 87 0.0 3.2 0.00 0.00 0.00 87 1002.2
20260508074339 22 207 0.0 1.6 0.00 0.00 0.00 83 1002.3
20260508073342 22 275 0.0 1.6 0.00 0.00 0.00 83 1002.3
20260508072344 22 275 0.0 0.0 0.00 0.00 0.00 83 1002.2
20260508071331 22 275 0.0 1.6 0.00 0.00 0.00 84 1002.5
20260508070337 22 275 0.0 1.6 0.00 0.00 0.00 86 1002.5
20260508065338 21 277 0.0 1.6 0.00 0.00 0.00 87 1002.4
20260508064401 21 277 0.0 3.2 0.00 0.00 0.00 88 1002.7
20260508063341 21 274 1.6 6.4 0.00 0.00 0.00 88 1003.1
20260508062401 20 273 3.2 9.7 0.00 0.00 0.00 89 1003.3
20260508061340 20 278 1.6 9.7 0.00 0.00 0.00 90 1003.2
20260508060341 20 289 0.0 3.2 0.00 0.00 0.00 91 1003.4
20260508055342 20 283 1.6 1.6 0.00 0.00 0.00 92 1003.5
20260508054343 20 319 1.6 3.2 0.00 0.00 0.00 91 1003.6
20260508053344 20 284 0.0 4.8 0.00 0.00 0.00 91 1003.8
20260508052406 20 312 0.0 3.2 0.00 0.00 0.00 90 1004.3
20260508051342 20 320 0.0 3.2 0.00 0.00 0.00 88 1004.1
20260508050404 21 279 0.0 4.8 0.00 0.00 0.00 86 1004.7
20260508045345 21 284 1.6 8.0 0.00 0.00 0.00 85 1004.6
20260508044348 22 24 1.6 8.0 0.00 0.00 0.00 82 1004.6
20260508043328 23 253 0.0 1.6 0.00 0.00 0.00 79 1004.8
20260508042328 23 247 0.0 1.6 0.00 0.00 0.00 80 1005.0
20260508041331 22 247 0.0 1.6 0.00 0.00 0.00 82 1005.2
20260508040332 21 234 0.0 1.6 0.00 0.00 0.00 82 1005.6
20260508035335 20 230 1.6 6.4 0.00 0.00 0.00 84 1006.5
20260508034332 20 284 4.8 12.9 0.00 0.00 0.00 83 1006.7
20260508033333 20 299 0.0 6.4 0.00 0.00 0.00 78 1006.4
20260508032356 21 247 3.2 8.0 0.00 0.00 0.00 74 1006.1
20260508031343 21 291 1.6 6.4 0.00 0.00 0.00 70 1006.4
20260508030344 22 294 1.6 4.8 0.00 0.00 0.00 68 1006.1
20260508025347 22 99 1.6 4.8 0.00 0.00 0.00 68 1006.2
20260508024345 23 264 1.6 3.2 0.00 0.00 0.00 66 1006.1
20260508023347 23 237 0.0 3.2 0.00 0.00 0.00 65 1006.2
20260508022406 23 270 0.0 4.8 0.00 0.00 0.00 67 1006.1
20260508021328 23 295 0.0 3.2 0.00 0.00 0.00 65 1006.3
20260508020332 22 271 0.0 3.2 0.00 0.00 0.00 65 1006.3
20260508015335 22 251 1.6 4.8 0.00 0.00 0.00 65 1006.6
20260508014336 22 267 0.0 1.6 0.00 0.00 0.00 64 1007.0
20260508013339 23 343 0.0 3.2 0.00 0.00 0.00 61 1007.0
20260508012341 25 265 0.0 3.2 0.00 0.00 0.00 62 1007.1
20260508011340 25 245 0.0 6.4 0.00 0.00 0.00 59 1007.2
20260508010341 25 284 0.0 3.2 0.00 0.00 0.00 58 1007.3
20260508005400 26 280 0.0 1.6 0.00 0.00 0.00 59 1007.2
20260508004341 25 293 1.6 4.8 0.00 0.00 0.00 59 1007.2
20260508003403 25 299 0.0 3.2 0.00 0.00 0.00 64 1007.4
20260508002343 25 267 0.0 1.6 0.00 0.00 0.00 60 1007.6
20260508001406 25 266 0.0 1.6 0.00 0.00 0.00 58 1007.6
20260508000327 24 266 1.6 4.8 0.00 0.00 0.00 63 1007.2
20260507235331 24 282 0.0 1.6 0.00 0.00 0.00 65 1007.5
20260507234335 23 284 0.0 3.2 0.00 0.00 0.00 68 1007.6
20260507233332 23 285 0.0 3.2 0.00 0.00 0.00 68 1008.0
20260507232334 22 288 0.0 1.6 0.00 0.00 0.00 66 1008.2
20260507231336 22 301 0.0 3.2 0.00 0.00 0.00 68 1008.3
20260507230339 22 322 0.0 3.2 0.00 0.00 0.00 74 1008.4
20260507225341 21 303 0.0 1.6 0.00 0.00 0.00 80 1008.4
20260507224327 21 303 0.0 1.6 0.00 0.00 0.00 85 1008.5
20260507223327 20 303 0.0 0.0 0.00 0.00 0.00 96 1008.7
20260507222329 18 303 0.0 0.0 0.00 0.00 0.00 100 1008.9
20260507221345 18 303 0.0 0.0 0.00 0.00 0.00 100 1008.9